STARLINK-1302 (45375 NORAD) Tracking and Keplerian Element Data

This shows tracking and keplerian element data for the satellite.

Feedback or suggestion? Click here.




ElementValue
Catalog45375
NameSTARLINK-1302
Epoch Orbit1873
Epoch Day197.25001157
Epoch Year2020
RAAN69.7583
Inclination53.0003
Eccentricity0.0001439
Argument of Perigee93.202
Mean Anonmoly71.8571
Mean Motion15.05602291
Decay Rate-0.00024317
L11 45375U 20019R 20197.25001157 -.00024317 00000-0 -16545-2 0 9998
L22 45375 53.0003 69.7583 0001439 93.2020 71.8571 15.05602291 18737

Live tracking and technical data element details for STARLINK-1302 (NORAD 45375). STARLINK-1302 can be tracked NOW for your location showing map with azimuth and elevation plus other details from your city location.

Track the satellite on the map from your city or location and see movement details for azimuth, elevation, latitude, longitude, range, height, and movement on the map or in text.







IsCatalogInMostPopularTable: catalog: 45375, numindb: 93
Update: records affected: 1



GetName: 45375 STARLINK-1302

Hit Count: updated at: Thu, 16 Jul 2020 03:05:15 GMT